Regional Weather Roundup
Issued by NWS Sterling, VA

Home | Current Version | Previous Version | Text Only | Print | Product List | Glossary Off
Versions: 1 2 3 4 5 6 7 8 9 10 11 12 13 14 15 16 17 18 19 20 21 22 23 24 25 26 27 28 29 30 31 32 33 34 35 36 37 38 39 40 41 42 43 44 45 46 47 48 49 50

367
ASUS41 KLWX 240211
RWRLWX

REGIONAL WEATHER ROUNDUP
NATIONAL WEATHER SERVICE BALTIMORE MD/WASHINGTON DC
1000 PM EDT SUN APR 23 2017

Note: "FAIR" indicates few or no clouds below 12,000 feet
with no significant weather and/or obstructions to visibility.
 TC=TEMPERATURE CELSIUS

 * =Non NWS site. Station does not report precipitation (e.g. rain,
    snow, etc.), thunder, or fog.

DCZ001-MDZ009-015-VAZ040>042-051-053>054-240300-
WASHINGTON METRO

CITY           SKY/WX    TMP DP  RH WIND       PRES   REMARKS
WASHINGTON NAT CLOUDY    58  45  62 E5        30.11R
DULLES         CLOUDY    54  43  66 SE6       30.10R
ANDREWS AFB    CLOUDY    54  46  75 CALM      30.10R
FT BELVOIR     CLOUDY    53  48  84 CALM      30.10R
QUANTICO       CLOUDY    58  48  69 E7        30.11R
COLLEGE PARK*  MOCLDY    53  47  80 CALM      30.11R
LEESBURG*      CLOUDY    55  46  71 SE3       30.11S
MANASSAS*        N/A     54  47  77 E3        30.11R

$$

MDZ006>007-011-014-240300-
BALTIMORE METRO

CITY           SKY/WX    TMP DP  RH WIND       PRES   REMARKS
BWI AIRPORT    CLOUDY    54  47  77 CALM      30.10S
MD SCIENCE CTR   N/A     59  42  53 MISG      30.11R
ANNAPOLIS      PTCLDY    58  48  69 E5        30.10R
FORT MEADE*    CLOUDY    50  46  87 CALM      30.13S

$$

MDZ012-015-019>023-240300-
MARYLAND EASTERN SHORE

CITY           SKY/WX    TMP DP  RH WIND       PRES   REMARKS
OCEAN CITY     CLOUDY    52  46  80 E10       30.12R
SALISBURY      CLOUDY    51  47  86 NE6       30.12R
BAY BRIDGE AP* PTCLDY    55  46  71 E3        30.11S
CAMBRIDGE*     CLOUDY    54  48  82 E7        30.11S
EASTON*        CLOUDY    55  46  71 E3        30.14F

$$

MDZ017>025-240300-
SOUTHERN MARYLAND

CITY           SKY/WX    TMP DP  RH WIND       PRES   REMARKS
PATUXENT RIVER CLOUDY    55  47  74 E14       30.10R
ST INIGOES     LGT RAIN  55  48  77 E6        30.09S
LEONARDTOWN*   CLOUDY    54  46  76 E5        30.12R

$$

MDZ003>005-240300-
NORTH CENTRAL MARYLAND

CITY           SKY/WX    TMP DP  RH WIND       PRES   REMARKS
FREDERICK*     CLOUDY    54  50  87 CALM      30.14R
HAGERSTOWN APT CLOUDY    56  44  64 S7        30.09R
WESTMINSTER*   PTCLDY    54  45  71 CALM      30.11R

$$

MDZ501>502-240300-
WESTERN MARYLAND

CITY           SKY/WX    TMP DP  RH WIND       PRES   REMARKS
OAKLAND*       CLEAR     43  34  70 E9        30.06R
CUMBERLAND*    PTCLDY    54  41  62 CALM      30.13R

$$

VAZ025>031-240300-
SHENANDOAH VALLEY

CITY           SKY/WX    TMP DP  RH WIND       PRES   REMARKS
WINCHESTER*    CLOUDY    50  43  76 CALM      30.09S
FRONT ROYAL*   PTCLDY    52  43  71 CALM      30.08S
LURAY*         CLOUDY    50  46  87 CALM      30.08R
NEW MARKET*    CLOUDY    51  44  79 CALM      30.07R
STAUNTON*      DRIZZLE   50  43  78 CALM      30.10R
WAYNESBORO*    CLOUDY    48  46  93 CALM      30.08R

$$

WVZ021-048>050-054>055-240300-
EASTERN WEST VIRGINIA PANHANDLE

CITY           SKY/WX    TMP DP  RH WIND       PRES   REMARKS
MARTINSBURG    PTCLDY    52  43  71 SE3       30.09R
PETERSBURG*    CLOUDY    52  47  82 CALM      30.09R

$$

VAZ036>039-050-240300-
CENTRAL FOOTHILLS

CITY           SKY/WX    TMP DP  RH WIND       PRES   REMARKS
CHARLOTTESVILL LGT RAIN  53  48  83 NE3       30.08R
CULPEPER*      CLOUDY    53  50  89 CALM      30.11R
ORANGE*        CLOUDY    50  48  93 CALM      30.09S
GORDONSVILLE*  CLOUDY    50  50  98 CALM      30.08S
WARRENTON*     CLOUDY    54  46  75 CALM      30.09S

$$

VAZ055>057-240300-
NORTH AND CENTRAL PIEDMONT

CITY           SKY/WX    TMP DP  RH WIND       PRES   REMARKS
FREDERICKSBRG* CLOUDY    54  52  95 CALM      30.09S
STAFFORD*      LGT RAIN  51  51 100 CALM      30.14R

$$

NCZ024-NYZ072-PAZ021-071-VAZ022-071-240300-
OTHER REGIONAL OBSERVATIONS

CITY           SKY/WX    TMP DP  RH WIND       PRES   REMARKS
NEW YORK CITY  CLOUDY    52  41  66 S6        30.15R
PHILADELPHIA   MOCLDY    53  45  74 S5        30.14R
PITTSBURGH     CLOUDY    62  30  29 CALM      30.04R
ROANOKE        LGT RAIN  48  47  96 CALM      30.09R
RICHMOND       LGT RAIN  53  52  96 NE5       30.08F
RALEIGH        CLOUDY    53  51  93 E16G22    29.99S

$$

ANZ530>537-240300-
MARINE OBSERVATIONS

STATION/POSITION TIME  TEMP    WIND        PRES
                       AIR SEA DIR/SP/G
                 (UTC) (F)     (DEG/KT/KT) (MB)
THOMAS PT LIGHT  0200   57 59   50/  5/  6   N/A
BALT KEY BRIDGE  0142   58     110/  6/  7 1019.4R
COVE POINT       0142   55     110/ 12/ 14 1019.7F
LEWISETTA        0142   57 62  110/ 14/ 16 1019.0R
SOLOMONS ISLAND  0148           90/ 13/ 15   N/A
PINEY POINT      0148          120/ 12/ 15   N/A

$$





USA.gov is the U.S. government's official web portal to all federal, state and local government web resources and services.